H1 CPF 2 NER 2023 8 20 9 232 01 glonass143 H2 2007501 9143 46805 2023 8 20 0 0 0 2023 8 23 23 45 0 900 1 1 0 0 0 1 H9 10 0 60176 0.00000 0 -9820545.238 -20162936.576 -12155235.976 10 0 60176 900.00000 0 -10243521.164 -21427051.978 -9317140.226 10 0 60176 1800.00000 0 -10652654.305 -22312062.898 -6298125.879 10 0 60176 2700.00000 0 -10991455.284 -22810201.451 -3156843.047 10 0 60176 3600.00000 0 -11204350.294 -22926925.924 45712.162 10 0 60176 4500.00000 0 -11239233.796 -22680543.376 3247382.476 10 0 60176 5400.00000 0 -11049883.838 -22101311.397 6386054.820 10 0 60176 6300.00000 0 -10598137.832 -21230057.935 9400862.746 10 0 60176 7200.00000 0 -9855736.883 -20116378.112 12233362.570 10 0 60176 8100.00000 0 -8805760.748 -18816484.452 14828660.668 10 0 60176 9000.00000 0 -7443592.766 -17390801.119 17136470.541 10 0 60176 9900.00000 0 -5777373.783 -15901403.096 19112079.769 10 0 60176 10800.00000 0 -3827925.321 -14409407.356 20717208.910 10 0 60176 11700.00000 0 -1628144.249 -12972424.682 21920746.614 10 0 60176 12600.00000 0 778106.988 -11642178.039 22699347.486 10 0 60176 13500.00000 0 3337569.796 -10462386.212 23037881.878 10 0 60176 14400.00000 0 5989554.866 -9467000.334 22929729.358 10 0 60176 15300.00000 0 8668223.594 -8678866.265 22376910.361 10 0 60176 16200.00000 0 11305092.474 -8108868.186 21390053.296 10 0 60176 17100.00000 0 13831658.031 -7755588.898 19988197.231 10 0 60176 18000.00000 0 16182034.603 -7605500.976 18198433.168 10 0 60176 18900.00000 0 18295496.385 -7633680.885 16055389.812 10 0 60176 19800.00000 0 20118818.660 -7805016.363 13600572.636 10 0 60176 20700.00000 0 21608320.976 -8075856.638 10881567.966 10 0 60176 21600.00000 0 22731526.992 -8396036.272 7951126.530 10 0 60176 22500.00000 0 23468371.375 -8711187.360 4866143.520 10 0 60176 23400.00000 0 23811902.787 -8965242.337 1686554.643 10 0 60176 24300.00000 0 23768453.020 -9103021.074 -1525830.438 10 0 60176 25200.00000 0 23357264.822 -9072792.066 -4708534.266 10 0 60176 26100.00000 0 22609593.832 -8828698.151 -7799633.217 10 0 60176 27000.00000 0 21567322.417 -8332942.779 -10738969.988 10 0 60176 27900.00000 0 20281144.035 -7557642.746 -13469332.444 10 0 60176 28800.00000 0 18808394.990 -6486267.486 -15937574.866 10 0 60176 29700.00000 0 17210625.513 -5114602.533 -18095659.027 10 0 60176 30600.00000 0 15551013.012 -3451194.989 -19901594.191 10 0 60176 31500.00000 0 13891726.938 -1517260.916 -21320257.357 10 0 60176 32400.00000 0 12291356.510 653942.626 -22324077.676 10 0 60176 33300.00000 0 10802509.563 3018255.549 -22893571.831 10 0 60176 34200.00000 0 9469683.324 5522215.801 -23017720.236 10 0 60176 35100.00000 0 8327496.055 8105057.191 -22694177.126 10 0 60176 36000.00000 0 7399353.093 10701021.042 -21929310.916 10 0 60176 36900.00000 0 6696602.286 13241885.578 -20738074.435 10 0 60176 37800.00000 0 6218213.063 15659607.953 -19143707.976 10 0 60176 38700.00000 0 5950991.279 17888969.134 -17177281.223 10 0 60176 39600.00000 0 5870319.352 19870111.752 -14877083.263 10 0 60176 40500.00000 0 5941389.153 21550865.558 -12287872.758 10 0 60176 41400.00000 0 6120874.333 22888764.068 -9460003.069 10 0 60176 42300.00000 0 6358970.396 23852668.856 -6448439.631 10 0 60176 43200.00000 0 6601715.332 24423934.523 -3311688.913 10 0 60176 44100.00000 0 6793492.007 24597066.585 -110660.076 10 0 60176 45000.00000 0 6879605.904 24379845.838 3092518.252 10 0 60176 45900.00000 0 6808828.861 23792915.114 6235702.879 10 0 60176 46800.00000 0 6535801.036 22868846.833 9257939.154 10 0 60176 47700.00000 0 6023189.493 21650731.359 12100638.888 10 0 60176 48600.00000 0 5243512.194 20190346.066 14708710.534 10 0 60176 49500.00000 0 4180550.332 18545982.243 17031620.125 10 0 60176 50400.00000 0 2830289.264 16780020.959 19024363.033 10 0 60176 51300.00000 0 1201347.955 14956359.079 20648328.515 10 0 60176 52200.00000 0 -685121.858 13137792.504 21872041.164 10 0 60176 53100.00000 0 -2796063.705 11383465.169 22671765.723 10 0 60176 54000.00000 0 -5087646.728 9746489.365 23031964.289 10 0 60176 54900.00000 0 -7506852.871 8271835.618 22945597.539 10 0 60176 55800.00000 0 -9993456.511 6994579.243 22414264.336 10 0 60176 56700.00000 0 -12482315.961 5938575.852 21448176.872 10 0 60176 57600.00000 0 -14905883.267 5115620.459 20065971.320 10 0 60176 58500.00000 0 -17196829.334 4525124.894 18294356.869 10 0 60176 59400.00000 0 -19290676.390 4154326.789 16167608.911 10 0 60176 60300.00000 0 -21128328.934 3979021.337 13726915.035 10 0 60176 61200.00000 0 -22658398.033 3964785.159 11019585.409 10 0 60176 62100.00000 0 -23839221.941 4068640.871 8098141.857 10 0 60176 63000.00000 0 -24640498.216 4241092.217 5019302.567 10 0 60176 63900.00000 0 -25044458.424 4428443.691 1842881.766 10 0 60176 64800.00000 0 -25046535.477 4575306.186 -1369374.319 10 0 60176 65700.00000 0 -24655494.918 4627181.965 -4554992.245 10 0 60176 66600.00000 0 -23893024.056 4533018.519 -7651992.825 10 0 60176 67500.00000 0 -22792795.903 4247621.932 -10600104.671 10 0 60176 68400.00000 0 -21399047.138 3733826.154 -13341945.239 10 0 60176 69300.00000 0 -19764730.110 2964324.835 -15824145.449 10 0 60176 70200.00000 0 -17949316.933 1923086.746 -17998395.149 10 0 60176 71100.00000 0 -16016348.434 606293.510 -19822388.480 10 0 60176 72000.00000 0 -14030831.447 -977241.259 -21260650.331 10 0 60176 72900.00000 0 -12056594.102 -2806190.279 -22285227.691 10 0 60176 73800.00000 0 -10153710.257 -4847364.457 -22876232.556 10 0 60176 74700.00000 0 -8376101.021 -7056871.790 -23022226.086 10 0 60176 75600.00000 0 -6769413.497 -9381735.424 -22720436.932 10 0 60176 76500.00000 0 -5369264.933 -11761903.763 -21976809.934 10 0 60176 77400.00000 0 -4199924.820 -14132568.974 -20805884.658 10 0 60176 78300.00000 0 -3273488.932 -16426697.416 -19230506.512 10 0 60176 79200.00000 0 -2589578.410 -18577666.631 -17281376.380 10 0 60176 80100.00000 0 -2135574.935 -20521899.033 -14996447.808 10 0 60176 81000.00000 0 -1887380.424 -22201382.655 -12420183.683 10 0 60176 81900.00000 0 -1810667.635 -23565973.996 -9602687.081 10 0 60176 82800.00000 0 -1862567.483 -24575387.138 -6598723.438 10 0 60176 83700.00000 0 -1993720.537 -25200786.528 -3466653.315 10 0 60176 84600.00000 0 -2150604.947 -25425917.433 -267296.775 10 0 60176 85500.00000 0 -2278041.560 -25247727.512 2937248.242 10 0 60177 0.00000 0 -2321769.695 -24676454.378 6084810.102 10 0 60177 900.00000 0 -2230984.287 -23735175.969 9114348.380 10 0 60177 1800.00000 0 -1960726.908 -22458844.167 11967131.898 10 0 60177 2700.00000 0 -1474029.671 -20892841.766 14587872.887 10 0 60177 3600.00000 0 -743721.382 -19091124.249 16925791.501 10 0 60177 4500.00000 0 246180.267 -17114023.961 18935592.347 10 0 60177 5400.00000 0 1499549.360 -15025808.275 20578334.609 10 0 60177 6300.00000 0 3007744.463 -12892093.148 21822179.820 10 0 60177 7200.00000 0 4749731.300 -10777219.184 22643003.580 10 0 60177 8100.00000 0 6692731.444 -8741698.544 23024860.165 10 0 60177 9000.00000 0 8793371.380 -6839837.940 22960291.504 10 0 60177 9900.00000 0 10999285.637 -5117635.576 22450474.752 10 0 60177 10800.00000 0 13251108.919 -3611038.594 21505205.484 10 0 60177 11700.00000 0 15484776.000 -2344632.683 20142716.333 10 0 60177 12600.00000 0 17634035.105 -1330817.870 18389333.789 10 0 60177 13500.00000 0 19633071.377 -569504.367 16278978.814 10 0 60177 14400.00000 0 21419131.968 -48340.907 13852519.747 10 0 60177 15300.00000 0 22935043.673 256534.165 11156988.970 10 0 60177 16200.00000 0 24131517.965 379250.697 8244677.508 10 0 60177 17100.00000 0 24969146.666 362525.848 5172124.358 10 0 60177 18000.00000 0 25420003.965 255615.599 1999019.820 10 0 60177 18900.00000 0 25468786.740 111985.591 -1212955.969 10 0 60177 19800.00000 0 25113444.361 -13199.578 -4401336.392 10 0 60177 20700.00000 0 24365270.625 -65661.454 -7504089.559 10 0 60177 21600.00000 0 23248453.242 5443.383 -10460832.798 10 0 60177 22500.00000 0 21799099.314 245119.848 -13214015.838 10 0 60177 23400.00000 0 20063777.561 690379.507 -15710048.712 10 0 60177 24300.00000 0 18097638.565 1368426.956 -17900351.583 10 0 60177 25200.00000 0 15962192.178 2295265.485 -19742305.469 10 0 60177 26100.00000 0 13722835.674 3474782.239 -21200084.899 10 0 60177 27000.00000 0 11446236.591 4898352.571 -22245356.214 10 0 60177 27900.00000 0 9197680.060 6544981.298 -22857827.979 10 0 60177 28800.00000 0 7038491.675 8381975.733 -23025643.068 10 0 60177 29700.00000 0 5023643.430 10366122.921 -22745605.201 10 0 60177 30600.00000 0 3199642.213 12445322.285 -22023235.932 10 0 60177 31500.00000 0 1602788.276 14560605.668 -20872661.444 10 0 60177 32400.00000 0 257875.275 16648460.547 -19316331.708 10 0 60177 33300.00000 0 -822615.197 18643359.472 -17384577.805 10 0 60177 34200.00000 0 -1638792.520 20480390.083 -15115016.287 10 0 60177 35100.00000 0 -2203099.486 22097875.855 -12551812.369 10 0 60177 36000.00000 0 -2539530.964 23439878.135 -9744816.528 10 0 60177 36900.00000 0 -2682363.389 24458474.895 -6748591.518 10 0 60177 37800.00000 0 -2674450.252 25115721.164 -3621348.985 10 0 60177 38700.00000 0 -2565156.930 25385209.331 -423816.651 10 0 60177 39600.00000 0 -2408023.177 25253164.481 2781941.642 10 0 60177 40500.00000 0 -2258252.960 24719029.373 5933729.835 10 0 60177 41400.00000 0 -2170138.323 23795515.154 8970424.037 10 0 60177 42300.00000 0 -2194526.478 22508116.242 11833153.962 10 0 60177 43200.00000 0 -2376437.290 20894110.135 14466438.744 10 0 60177 44100.00000 0 -2752931.740 19001084.260 16819255.527 10 0 60177 45000.00000 0 -3351321.246 16885051.480 18846020.710 10 0 60177 45900.00000 0 -4187793.345 14608232.702 20507465.627 10 0 60177 46800.00000 0 -5266511.777 12236598.475 21771390.578 10 0 60177 47700.00000 0 -6579229.313 9837271.235 22613283.440 10 0 60177 48600.00000 0 -8105430.387 7475895.255 23016791.604 10 0 60177 49500.00000 0 -9812998.724 5214082.515 22974038.676 10 0 60177 50400.00000 0 -11659383.479 3107039.472 22485779.974 10 0 60177 51300.00000 0 -13593216.786 1201472.222 21561393.730 10 0 60177 52200.00000 0 -15556316.879 -466143.908 20218707.699 10 0 60177 53100.00000 0 -17485994.758 -1870859.135 18483663.751 10 0 60177 54000.00000 0 -19317569.523 -3000055.120 16389825.922 10 0 60177 54900.00000 0 -20986988.382 -3853728.818 13977740.326 10 0 60177 55800.00000 0 -22433442.449 -4444242.729 11294158.189 10 0 60177 56700.00000 0 -23601869.081 -4795552.259 8391136.092 10 0 60177 57600.00000 0 -24445235.680 -4941942.879 5325030.051 10 0 60177 58500.00000 0 -24926508.512 -4926330.494 2155402.611 10 0 60177 59400.00000 0 -25020222.951 -4798197.130 -1056135.930 10 0 60177 60300.00000 0 -24713588.064 -4611249.731 -4247129.374 10 0 60177 61200.00000 0 -24007077.926 -4420901.881 -7355496.507 10 0 60177 62100.00000 0 -22914483.738 -4281686.053 -10320746.486 10 0 60177 63000.00000 0 -21462423.699 -4244707.120 -13085164.113 10 0 60177 63900.00000 0 -19689330.572 -4355246.260 -15594940.969 10 0 60177 64800.00000 0 -17643959.179 -4650617.946 -17801229.547 10 0 60177 65700.00000 0 -15383476.307 -5158371.972 -19661099.255 10 0 60177 66600.00000 0 -12971213.193 -5894917.665 -21138375.231 10 0 60177 67500.00000 0 -10474174.891 -6864629.376 -22204343.522 10 0 60177 68400.00000 0 -7960410.794 -8059471.891 -22838309.007 10 0 60177 69300.00000 0 -5496356.270 -9459162.208 -23027995.439 10 0 60177 70200.00000 0 -3144256.239 -11031861.475 -22769780.217 10 0 60177 71100.00000 0 -959777.734 -12735368.469 -22068759.779 10 0 60177 72000.00000 0 1010089.586 -14518764.804 -20938644.720 10 0 60177 72900.00000 0 2728758.457 -16324443.120 -19401487.094 10 0 60177 73800.00000 0 4171323.834 -18090433.348 -17487245.500 10 0 60177 74700.00000 0 5325345.604 -19752929.629 -15233196.686 10 0 60177 75600.00000 0 6191103.221 -21248912.017 -12683205.340 10 0 60177 76500.00000 0 6781313.480 -22518753.121 -9886866.474 10 0 60177 77400.00000 0 7120325.171 -23508700.402 -6898537.335 10 0 60177 78300.00000 0 7242826.322 -24173130.151 -3776277.929 10 0 60177 79200.00000 0 7192120.151 -24476478.727 -580721.029 10 0 60177 80100.00000 0 7018043.854 -24394770.281 2626106.066 10 0 60177 81000.00000 0 6774619.204 -23916677.142 5781984.867 10 0 60177 81900.00000 0 6517535.044 -23044068.770 8825710.656 10 0 60177 82800.00000 0 6301568.505 -21792026.546 11698275.611 10 0 60177 83700.00000 0 6178054.098 -20188324.073 14344007.400 10 0 60177 84600.00000 0 6192507.559 -18272394.812 16711641.536 10 0 60177 85500.00000 0 6382504.515 -16093830.129 18755307.319 10 0 60178 0.00000 0 6775903.222 -13710470.334 20435408.921 10 0 60178 900.00000 0 7389486.327 -11186166.344 21719386.239 10 0 60178 1800.00000 0 8228078.379 -8588307.524 22582339.462 10 0 60178 2700.00000 0 9284177.221 -5985213.188 23007509.026 10 0 60178 3600.00000 0 10538115.028 -3443498.015 22986599.854 10 0 60178 4500.00000 0 11958743.462 -1025518.257 22519944.813 10 0 60178 5400.00000 0 13504615.585 1212996.304 21616503.977 10 0 60178 6300.00000 0 15125616.587 3225027.484 20293699.219 10 0 60178 7200.00000 0 16764976.630 4973985.237 18577086.614 10 0 60178 8100.00000 0 18361583.031 6434984.971 16499871.960 10 0 60178 9000.00000 0 19852496.200 7595633.015 14102277.677 10 0 60178 9900.00000 0 21175564.749 8456287.819 11430772.214 10 0 60178 10800.00000 0 22272030.508 9029786.276 8537175.904 10 0 60178 11700.00000 0 23089014.080 9340646.872 5477659.806 10 0 60178 12600.00000 0 23581775.953 9423783.415 2311656.564 10 0 60178 13500.00000 0 23715657.212 9322783.898 -899295.666 10 0 60178 14400.00000 0 23467617.042 9087827.616 -4092753.499 10 0 60178 15300.00000 0 22827300.988 8773329.247 -7206588.824 10 0 60178 16200.00000 0 21797593.693 8435410.432 -10180205.015 10 0 60178 17100.00000 0 20394631.638 8129306.888 -12955724.225 10 0 60178 18000.00000 0 18647274.365 7906821.957 -15479121.710 10 0 60178 18900.00000 0 16596055.632 7813935.544 -17701284.239 10 0 60178 19800.00000 0 14291658.023 7888670.717 -19578971.381 10 0 60178 20700.00000 0 11792974.734 8159309.205 -21075660.482 10 0 60178 21600.00000 0 9164839.543 8643032.031 -22162258.754 10 0 60178 22500.00000 0 6475519.851 9345043.365 -22817668.683 10 0 60178 23400.00000 0 3794077.471 10258215.052 -23029196.002 10 0 60178 24300.00000 0 1187707.103 11363267.166 -22792792.667 10 0 60178 25200.00000 0 -1280836.887 12629477.232 -22113130.556 10 0 60178 26100.00000 0 -3555618.712 14015888.422 -21003504.869 10 0 60178 27000.00000 0 -5589606.147 15472966.006 -19485569.514 10 0 60178 27900.00000 0 -7346376.499 16944632.445 -17588909.929 10 0 60178 28800.00000 0 -8801373.725 18370595.625 -15350461.933 10 0 60178 29700.00000 0 -9942665.842 19688872.307 -12813788.117 10 0 60178 30600.00000 0 -10771172.726 20838400.762 -10028226.069 10 0 60178 31500.00000 0 -11300356.647 21761632.680 -7047925.229 10 0 60178 32400.00000 0 -11555390.417 22406995.431 -3930791.365 10 0 60178 33300.00000 0 -11571839.947 22731121.150 -737359.473 10 0 60178 34200.00000 0 -11393918.267 22700749.039 2470382.691 10 0 60178 35100.00000 0 -11072386.014 22294221.036 5630197.321 10 0 60178 36000.00000 0 -10662187.963 21502508.191 8680802.041 10 0 60178 36900.00000 0 -10219926.087 20329724.761 11563054.666 10 0 60178 37800.00000 0 -9801276.163 18793108.591 14221094.494 10 0 60178 38700.00000 0 -9458456.976 16922468.492 16603418.385 10 0 60178 39600.00000 0 -9237858.717 14759121.542 18663871.342 10 0 60178 40500.00000 0 -9177930.168 12354364.197 20362533.201 10 0 60178 41400.00000 0 -9307413.326 9767540.239 21666485.114 10 0 60178 42300.00000 0 -9643999.478 7063785.046 22550441.837 10 0 60178 43200.00000 0 -10193463.178 4311538.788 22997238.344 10 0 60178 44100.00000 0 -10949310.749 1579930.467 22998161.903 10 0 60178 45000.00000 0 -11892958.670 -1063859.986 22553123.440 10 0 60178 45900.00000 0 -12994435.234 -3557153.521 21670664.792 10 0 60178 46800.00000 0 -14213577.310 -5844133.099 20367801.281 10 0 60178 47700.00000 0 -15501673.287 -7877917.162 18669701.913 10 0 60178 48600.00000 0 -16803484.715 -9622260.176 16609212.385 10 0 60178 49500.00000 0 -18059563.030 -11052810.121 14226229.020 10 0 60178 50400.00000 0 -19208765.046 -12157870.909 11566934.622 10 0 60178 51300.00000 0 -20190862.121 -12938638.166 8682910.036 10 0 60178 52200.00000 0 -20949133.400 -13408898.722 5630137.849 10 0 60178 53100.00000 0 -21432833.646 -13594206.580 2467917.119 10 0 60178 54000.00000 0 -21599430.960 -13530570.291 -742289.897 10 0 60178 54900.00000 0 -21416518.977 -13262707.455 -3938056.375 10 0 60178 55800.00000 0 -20863321.572 -12841940.549 -7057210.979 10 0 60178 56700.00000 0 -19931725.202 -12323823.750 -10039054.828 10 0 60178 57600.00000 0 -18626793.939 -11765601.992 -12825550.752 10 0 60178 58500.00000 0 -16966744.197 -11223610.753 -15362460.722 10 0 60178 59400.00000 0 -14982379.116 -10750727.610 -17600408.462 10 0 60178 60300.00000 0 -12716005.486 -10393984.339 -19495845.919 10 0 60178 61200.00000 0 -10219878.033 -10192441.376 -21011904.318 10 0 60178 62100.00000 0 -7554235.817 -10175415.151 -22119113.084 10 0 60178 63000.00000 0 -4785012.558 -10361133.643 -22795972.702 10 0 60178 63900.00000 0 -1981316.351 -10755877.153 -23029370.620 10 0 60178 64800.00000 0 787216.369 -11353640.680 -22814832.468 10 0 60178 65700.00000 0 3453082.643 -12136332.066 -22156604.136 10 0 60178 66600.00000 0 5953480.163 -13074497.459 -21067563.548 10 0 60178 67500.00000 0 8232673.602 -14128543.334 -19568964.207 10 0 60178 68400.00000 0 10244062.425 -15250403.424 -17690015.834 10 0 60178 69300.00000 0 11951865.138 -16385580.116 -15467310.521 10 0 60178 70200.00000 0 13332351.080 -17475474.174 -12944105.775 10 0 60178 71100.00000 0 14374569.931 -18459904.456 -10169478.623 10 0 60178 72000.00000 0 15080550.089 -19279711.330 -7197367.455 10 0 60178 72900.00000 0 15464959.479 -19879333.978 -4085520.526 10 0 60178 73800.00000 0 15554244.796 -20209252.947 -894371.797 10 0 60178 74700.00000 0 15385287.097 -20228194.994 2314133.665 10 0 60178 75600.00000 0 15003631.805 -19905007.411 5477741.701 10 0 60178 76500.00000 0 14461368.932 -19220122.934 8535094.966 10 0 60178 77400.00000 0 13814753.771 -18166553.692 11426919.270 10 0 60178 78300.00000 0 13121668.876 -16750372.355 14097167.527 10 0 60178 79200.00000 0 12439034.517 -14990660.126 16494099.516 10 0 60178 80100.00000 0 11820276.579 -12918923.425 18571277.103 10 0 60178 81000.00000 0 11312958.165 -10578003.041 20288456.401 10 0 60178 81900.00000 0 10956674.040 -8020520.466 21612360.474 10 0 60178 82800.00000 0 10781295.947 -5306925.067 22517318.449 10 0 60178 83700.00000 0 10805642.075 -2503222.033 22985759.478 10 0 60178 84600.00000 0 11036626.352 321525.969 23008552.501 10 0 60178 85500.00000 0 11468923.333 3097821.220 22585185.564 10 0 60179 0.00000 0 12085163.105 5758369.990 21723781.203 10 0 60179 900.00000 0 12856649.088 8240631.467 20440946.691 10 0 60179 1800.00000 0 13744568.695 10489168.520 18761462.515 10 0 60179 2700.00000 0 14701648.219 12457708.293 16717812.648 10 0 60179 3600.00000 0 15674182.713 14110824.101 14349565.572 10 0 60179 4500.00000 0 16604356.743 15425170.406 11702616.585 10 0 60179 5400.00000 0 17432758.976 16390219.322 8828305.073 10 0 60179 6300.00000 0 18100984.964 17008467.986 5782423.065 10 0 60179 7200.00000 0 18554218.238 17295108.111 2624133.844 10 0 60179 8100.00000 0 18743680.246 17277171.755 -585178.494 10 0 60179 9000.00000 0 18628844.754 16992189.430 -3783105.979 10 0 60179 9900.00000 0 18179321.917 16486417.531 -6907436.317 10 0 60179 10800.00000 0 17376331.015 15812710.429 -9897370.552 10 0 60179 11700.00000 0 16213698.150 15028127.856 -12694714.238 10 0 60179 12600.00000 0 14698335.314 14191379.543 -15245017.938 10 0 60179 13500.00000 0 12850179.268 13360216.035 -17498644.033 10 0 60179 14400.00000 0 10701591.622 12588876.799 -19411738.387 10 0 60179 15300.00000 0 8296244.336 11925704.239 -20947087.499 10 0 60179 16200.00000 0 5687536.649 11411024.898 -22074844.266 10 0 60179 17100.00000 0 2936609.122 11075387.658 -22773108.314 10 0 60179 18000.00000 0 110037.402 10938233.333 -23028349.788 10 0 60179 18900.00000 0 -2722698.415 11007051.660 -22835668.760 10 0 60179 19800.00000 0 -5491863.690 11277060.876 -22198885.630 10 0 60179 20700.00000 0 -8130128.419 11731422.978 -21130461.185 10 0 60179 21600.00000 0 -10575125.537 12341985.042 -19651248.265 10 0 60179 22500.00000 0 -12771802.515 13070514.833 -17790080.194 10 0 60179 23400.00000 0 -14674469.186 13870378.076 -15583204.237 10 0 60179 24300.00000 0 -16248457.528 14688586.193 -13073571.349 10 0 60179 25200.00000 0 -17471325.487 15468127.682 -10309996.204 10 0 60179 26100.00000 0 -18333555.945 16150484.448 -7346204.094 10 0 60179 27000.00000 0 -18838723.249 16678226.566 -4239783.497 10 0 60179 27900.00000 0 -19003121.966 16997575.795 -1051064.929 10 0 60179 28800.00000 0 -18854875.108 17060829.485 2158051.792 10 0 60179 29700.00000 0 -18432560.826 16828542.518 5325298.814 10 0 60179 30600.00000 0 -17783416.674 16271375.270 8389246.588 10 0 60179 31500.00000 0 -16961198.052 15371529.646 11290491.741 10 0 60179 32400.00000 0 -16023781.695 14123712.666 13972803.659 10 0 60179 33300.00000 0 -15030615.396 12535586.883 16384207.877 10 0 60179 34200.00000 0 -14040121.265 10627688.339 18477985.874 10 0 60179 35100.00000 0 -13107161.376 8432814.850 20213572.635 10 0 60179 36000.00000 0 -12280671.747 5994909.311 21557335.502 10 0 60179 36900.00000 0 -11601563.298 3367483.445 22483220.063 10 0 60179 37800.00000 0 -11100977.197 611646.275 22973251.364 10 0 60179 38700.00000 0 -10798967.166 -2206182.307 23017881.345 10 0 60179 39600.00000 0 -10703663.629 -5016779.494 22616176.028 10 0 60179 40500.00000 0 -10810954.638 -7750746.602 21775838.834 10 0 60179 41400.00000 0 -11104697.169 -10341147.747 20513069.142 10 0 60179 42300.00000 0 -11557450.396 -12726051.912 18852258.140 10 0 60179 43200.00000 0 -12131700.849 -14850873.908 16825526.863 10 0 60179 44100.00000 0 -12781528.758 -16670417.659 14472114.247 10 0 60179 45000.00000 0 -13454646.268 -18150537.139 11837625.922 10 0 60179 45900.00000 0 -14094722.272 -19269345.893 8973157.257 10 0 60179 46800.00000 0 -14643896.200 -20017924.575 5934306.835 10 0 60179 47700.00000 0 -15045374.640 -20400496.768 2780099.031 10 0 60179 48600.00000 0 -15246000.679 -20434065.608 -428163.546 10 0 60179 49500.00000 0 -15198686.579 -20147526.465 -3628095.236 10 0 60179 50400.00000 0 -14864605.741 -19580293.197 -6757446.318 10 0 60179 51300.00000 0 -14215049.909 -18780496.189 -9755321.318 10 0 60179 52200.00000 0 -13232871.543 -17802828.756 -12563372.024 10 0 60179 53100.00000 0 -11913448.860 -16706133.469 -15126940.981 10 0 60179 54000.00000 0 -10265131.286 -15550831.096 -17396132.384 10 0 60179 54900.00000 0 -8309145.161 -14396301.432 -19326788.837 10 0 60179 55800.00000 0 -6078962.430 -13298327.250 -20881354.486 10 0 60179 56700.00000 0 -3619157.846 -12306709.664 -22029607.547 10 0 60179 57600.00000 0 -983801.730 -11463155.716 -22749248.012 10 0 60179 58500.00000 0 1765545.077 -10799527.181 -23026329.324 10 0 60179 59400.00000 0 4562150.833 -10336524.085 -22855525.987 10 0 60179 60300.00000 0 7336650.773 -10082857.842 -22240232.323 10 0 60179 61200.00000 0 10019697.867 -10034948.120 -21192490.886 10 0 60179 62100.00000 0 12544616.484 -10177155.367 -19732752.303 10 0 60179 63000.00000 0 14849949.029 -10482538.276 -17889471.535 10 0 60179 63900.00000 0 16881790.074 -10914103.381 -15698548.682 10 0 60179 64800.00000 0 18595811.544 -11426493.214 -13202625.444 10 0 60179 65700.00000 0 19958895.480 -11968041.010 -10450251.101 10 0 60179 66600.00000 0 20950307.332 -12483104.584 -7494934.527 10 0 60179 67500.00000 0 21562362.075 -12914580.208 -4394100.875 10 0 60179 68400.00000 0 21800556.685 -13206489.914 -1207973.532 10 0 60179 69300.00000 0 21683164.914 -13306532.548 2001596.614 10 0 60179 70200.00000 0 21240312.826 -13168490.650 5172331.586 10 0 60179 71100.00000 0 20512575.219 -12754391.370 8242732.940 10 0 60179 72000.00000 0 19549153.041 -12036330.154 11153271.089 10 0 60179 72900.00000 0 18405709.205 -10997880.221 13847534.412 10 0 60179 73800.00000 0 17141954.198 -9635028.267 16273316.255 10 0 60179 74700.00000 0 15819083.023 -7956596.708 18383619.269 10 0 60179 75600.00000 0 14497170.820 -5984134.149 20137558.404 10 0 60179 76500.00000 0 13232635.891 -3751277.759 21501145.929 10 0 60179 77400.00000 0 12075875.706 -1302613.095 22447944.117 10 0 60179 78300.00000 0 11069174.103 1307922.529 22959573.771 10 0 60179 79200.00000 0 10244966.434 4019028.233 23026069.330 10 0 60179 80100.00000 0 9624534.564 6764338.375 22646073.993 10 0 60179 81000.00000 0 9217185.839 9474938.223 21826871.062 10 0 60179 81900.00000 0 9019950.119 12081993.664 20584250.526 10 0 60179 82800.00000 0 9017807.593 14519387.207 18942212.752 10 0 60179 83700.00000 0 9184438.074 16726251.896 16932514.079 10 0 60179 84600.00000 0 9483460.722 18649298.625 14594061.961 10 0 60179 85500.00000 0 9870112.563 20244840.377 11972170.272 99